Location: Unspecified
(0.0000°N, 0.0000°E)
Time: 13:02:26
(UTC+00:00)

Vanguard 2 - Pass Details

Date: 17 September 2019
Orbit: 554 x 2937 km, 32.9° (Epoch: 13 October)

Event Time Altitude Azimuth Distance (km) Brightness Sun altitude
Rises 15:03:42 0° 254° (WSW) 3,418 11.6 42.7°
Reaches altitude 10° 15:07:09 10° 230° (SW) 2,821 11.1 41.8°
Maximum altitude 15:11:02 15° 196° (SSW) 2,836 10.7 40.8°
Drops below altitude 10° 15:15:57 10° 164° (SSE) 3,740 11.0 39.6°
Sets 15:21:54 0° 144° (SE) 5,316 11.5 38.1°
